Weather History for Adana Incirlik AFB, Turkey

Change the Weather History Date:

Thursday, January 31, 2013

  Actual Average Record
Temperature  
Mean Temperature 52 °F -  
Max Temperature 60 °F 61 °F 68 °F (2001)
Min Temperature 45 °F 44 °F 26 °F (1997)
Degree Days  
Heating Degree Days 12    
Growing Degree Days 2 (Base 50)    
Moisture  
Dew Point 41 °F    
Average Humidity 69    
Maximum Humidity 93    
Minimum Humidity 32    
Precipitation  
Precipitation 0.00 in - - ()
Sea Level Pressure  
Sea Level Pressure 29.67 in    
Wind  
Wind Speed 6 mph ()    
Max Wind Speed 14 mph    
Max Gust Speed -    
Visibility 6.2 miles    
Events      
Averages and records for this station are not official NWS values.
T = Trace of Precipitation, MM = Missing Value Source: Averaged Metar Reports

Daily Weather History Graph

Daily Weather History Graph

Search for Another Location

Airport:

Trip Planner

Search our weather history database for the weather conditions in past years. The results will help you decide how hot, cold, wet, or windy it might be!

Date:

Astronomy

Jan. 31, 2013 Rise Set
Actual Time 6:41 AM EET 5:02 PM EET
Civil Twilight 6:14 AM EET 5:29 PM EET
Nautical Twilight 5:43 AM EET 6:00 PM EET
Astronomical Twilight 5:12 AM EET 6:31 PM EET
Moon 9:33 PM EET (1/31) 8:37 AM EET (1/31)
Length of Visible Light 11h 15m
Length of Day
10h 20m
Waning Gibbous, 82% of the Moon is Illuminated
Jan 31
Waning Gibbous
Feb 3
Last Quarter
Feb 10
New
Feb 17
First Quarter
Feb 25
Full

Hourly Weather History & Observations

Time (EET) Temp. Windchill Dew Point Humidity Pressure Visibility Wind Dir Wind Speed Gust Speed Precip Events Conditions
12:20 AM 48.2 °F - 42.8 °F 82% 29.71 in 6.2 mi NNE 5.8 mph - N/A   Mostly Cloudy
12:50 AM 48.2 °F - 41.0 °F 76% 29.71 in 6.2 mi NE 8.1 mph - N/A   Mostly Cloudy
1:20 AM 48.2 °F - 39.2 °F 71% 29.71 in 6.2 mi NE 9.2 mph - N/A   Mostly Cloudy
1:50 AM 46.4 °F 42.9 °F 41.0 °F 81% 29.68 in 6.2 mi NE 6.9 mph - N/A   Mostly Cloudy
2:00 AM 46 °F - 40 °F 74% 29.71 in 6 mi NE 6.9 mph - -   Partly Cloudy
2:20 AM 46.4 °F 43.5 °F 41.0 °F 81% 29.68 in 6.2 mi NNE 5.8 mph - N/A   Mostly Cloudy
2:50 AM 48.2 °F - 41.0 °F 76% 29.68 in 6.2 mi NNE 9.2 mph - N/A   Mostly Cloudy
3:20 AM 48.2 °F - 41.0 °F 76% 29.65 in 6.2 mi NNE 8.1 mph - N/A   Mostly Cloudy
3:50 AM 48.2 °F - 41.0 °F 76% 29.65 in 6.2 mi NNE 4.6 mph - N/A   Mostly Cloudy
4:50 AM 46.4 °F 42.9 °F 39.2 °F 76% 29.65 in 6.2 mi NNE 6.9 mph - N/A   Mostly Cloudy
5:20 AM 46.4 °F 42.9 °F 41.0 °F 81% 29.65 in 6.2 mi NNE 6.9 mph - N/A   Mostly Cloudy
5:50 AM 46.4 °F 43.5 °F 41.0 °F 81% 29.65 in 6.2 mi NNE 5.8 mph - N/A   Mostly Cloudy
6:20 AM 46.4 °F 41.9 °F 39.2 °F 76% 29.65 in 6.2 mi NE 9.2 mph - N/A   Mostly Cloudy
6:50 AM 46.4 °F 44.3 °F 39.2 °F 76% 29.65 in 6.2 mi NE 4.6 mph - N/A   Mostly Cloudy
7:20 AM 46.4 °F 44.3 °F 39.2 °F 76% 29.65 in 6.2 mi NNE 4.6 mph - N/A   Mostly Cloudy
7:50 AM 48.2 °F - 41.0 °F 76% 29.65 in 6.2 mi NNE 6.9 mph - N/A   Mostly Cloudy
8:00 AM 47 °F - 40 °F 71% 29.67 in 6 mi NNE 6.9 mph - -   Partly Cloudy
8:20 AM 50.0 °F - 39.2 °F 66% 29.65 in 6.2 mi ENE 5.8 mph - N/A   Mostly Cloudy
8:50 AM 51.8 °F - 41.0 °F 67% 29.65 in 6.2 mi NNE 4.6 mph - N/A   Mostly Cloudy
9:20 AM 51.8 °F - 39.2 °F 62% 29.68 in 6.2 mi ENE 11.5 mph - N/A   Mostly Cloudy
9:50 AM 53.6 °F - 39.2 °F 58% 29.68 in 6.2 mi ENE 11.5 mph - N/A   Mostly Cloudy
10:20 AM 55.4 °F - 39.2 °F 54% 29.68 in 6.2 mi NE 13.8 mph - N/A   Mostly Cloudy
10:50 AM 57.2 °F - 39.2 °F 51% 29.65 in 6.2 mi East 9.2 mph - N/A   Mostly Cloudy
11:20 AM 57.2 °F - 39.2 °F 51% 29.65 in 6.2 mi ENE 10.4 mph - N/A   Mostly Cloudy
11:50 AM 59.0 °F - 37.4 °F 45% 29.65 in 6.2 mi ENE 8.1 mph - N/A   Mostly Cloudy
12:20 PM 59.0 °F - 37.4 °F 45% 29.65 in 6.2 mi ENE 9.2 mph - N/A   Mostly Cloudy
12:50 PM 60.8 °F - 35.6 °F 39% 29.62 in 6.2 mi East 9.2 mph - N/A   Mostly Cloudy
1:20 PM 59.0 °F - 37.4 °F 45% 29.62 in 6.2 mi East 3.5 mph - N/A   Mostly Cloudy
1:50 PM 59.0 °F - 37.4 °F 45% 29.62 in 6.2 mi East 6.9 mph - N/A   Mostly Cloudy
2:00 PM 60 °F - 38 °F 32% 29.64 in 6 mi East 6.9 mph - -   Partly Cloudy
2:20 PM 60.8 °F - 39.2 °F 45% 29.62 in 6.2 mi East 4.6 mph - N/A   Mostly Cloudy
2:50 PM 59.0 °F - 39.2 °F 48% 29.65 in 6.2 mi SE 4.6 mph - N/A   Mostly Cloudy
3:20 PM 59.0 °F - 39.2 °F 48% 29.65 in 6.2 mi SE 6.9 mph - N/A   Mostly Cloudy
3:50 PM 59.0 °F - 39.2 °F 48% 29.65 in 6.2 mi South 2.3 mph - N/A   Mostly Cloudy
4:20 PM 57.2 °F - 44.6 °F 63% 29.65 in 6.2 mi SW 9.2 mph - N/A   Mostly Cloudy
4:50 PM 53.6 °F - 44.6 °F 72% 29.68 in 6.2 mi SW 8.1 mph - N/A   Mostly Cloudy
5:20 PM 51.8 °F - 44.6 °F 76% 29.68 in 6.2 mi SW 5.8 mph - N/A   Mostly Cloudy
5:50 PM 51.8 °F - 44.6 °F 76% 29.68 in 6.2 mi SSW 4.6 mph - N/A   Mostly Cloudy
6:20 PM 51.8 °F - 44.6 °F 76% 29.68 in 6.2 mi SW 2.3 mph - N/A   Mostly Cloudy
6:50 PM 51.8 °F - 44.6 °F 76% 29.68 in 6.2 mi West 3.5 mph - N/A   Mostly Cloudy
7:20 PM 50.0 °F - 44.6 °F 82% 29.71 in 6.2 mi Calm Calm - N/A   Mostly Cloudy
7:50 PM 48.2 °F - 44.6 °F 87% 29.71 in 6.2 mi NE 2.3 mph - N/A   Mostly Cloudy
8:00 PM 49 °F - 44 °F 77% 29.72 in 6 mi NE 2.3 mph - -   Partly Cloudy
8:20 PM 48.2 °F - 44.6 °F 87% 29.71 in 6.2 mi NW 2.3 mph - N/A   Scattered Clouds
8:50 PM 48.2 °F - 44.6 °F 87% 29.71 in 6.2 mi NNE 5.8 mph - N/A   Mostly Cloudy
9:20 PM 48.2 °F - 46.4 °F 93% 29.71 in 6.2 mi NNE 5.8 mph - N/A   Mostly Cloudy
9:50 PM 48.2 °F - 46.4 °F 93% 29.71 in 6.2 mi NE 6.9 mph - N/A   Mostly Cloudy
10:20 PM 48.2 °F - 44.6 °F 87% 29.71 in 6.2 mi ENE 5.8 mph - N/A   Mostly Cloudy
10:50 PM 46.4 °F 44.3 °F 42.8 °F 87% 29.71 in 6.2 mi NNE 4.6 mph - N/A   Mostly Cloudy
11:20 PM 48.2 °F - 41.0 °F 76% 29.71 in 6.2 mi NNE 5.8 mph - N/A   Mostly Cloudy
11:50 PM 46.4 °F - 41.0 °F 81% 29.74 in 6.2 mi NE 2.3 mph - N/A   Mostly Cloudy